2024/06/16 17:00:00,0.0,20.8
2024/06/16 17:10:00,0.0,20.6
2024/06/16 17:20:00,0.0,20.4
2024/06/16 17:30:00,0.0,20.2
2024/06/16 17:40:00,0.0,20.1
2024/06/16 17:50:00,0.0,20.1
2024/06/16 18:00:00,0.0,20.0
2024/06/16 18:10:00,0.0,19.9
2024/06/16 18:20:00,0.0,19.9
2024/06/16 18:30:00,0.0,19.9
2024/06/16 18:40:00,0.0,20.0
2024/06/16 18:50:00,0.0,19.9
2024/06/16 19:00:00,0.0,19.9
2024/06/16 19:10:00,0.0,19.8
2024/06/16 19:20:00,0.0,19.9
2024/06/16 19:30:00,0.0,19.6
2024/06/16 19:40:00,0.0,19.2
2024/06/16 19:50:00,0.0,19.1
2024/06/16 20:00:00,0.0,19.1
2024/06/16 20:10:00,0.0,19.2
2024/06/16 20:20:00,0.0,19.1
2024/06/16 20:30:00,0.0,19.0
2024/06/16 20:40:00,0.0,19.0
2024/06/16 20:50:00,0.0,19.0
2024/06/16 21:00:00,0.0,18.8
2024/06/16 21:10:00,0.0,18.7
2024/06/16 21:20:00,0.0,18.5
2024/06/16 21:30:00,0.0,18.3
2024/06/16 21:40:00,0.0,18.4
2024/06/16 21:50:00,0.0,18.1
2024/06/16 22:00:00,0.0,18.2
2024/06/16 22:10:00,0.0,18.1
2024/06/16 22:20:00,0.0,18.1
2024/06/16 22:30:00,0.0,17.9
2024/06/16 22:40:00,0.0,17.6
2024/06/16 22:50:00,0.0,17.5
2024/06/16 23:00:00,0.0,17.3
2024/06/16 23:10:00,0.0,17.1
2024/06/16 23:20:00,0.0,16.8
2024/06/16 23:30:00,0.0,16.7
2024/06/16 23:40:00,0.0,16.5
2024/06/16 23:50:00,0.0,16.3
